DW0000 Weather Reports


Display with metric or nautical units.
time (UTC)temp
F
wind
direction
speed
MPH
gust
MPH
rain 1hr
in
rain 24hr
in
rain mn
in
humidity
%
barometer
mb
20260906232505 58 351 13.0 21.0 0.00 0.05 0.05 89 1000.5
20260906232006 57 0 12.0 21.0 0.00 0.05 0.05 88 1000.5
20260906231506 57 345 10.0 17.0 0.00 0.05 0.05 88 1000.5
20260906231005 57 350 12.0 16.0 0.00 0.05 0.05 87 1000.8
20260906223505 58 313 13.0 22.0 0.00 0.05 0.05 83 1000.7
20260906223005 58 302 12.0 21.0 0.00 0.05 0.05 83 1000.9
20260906222506 58 316 12.0 21.0 0.00 0.05 0.05 83 1000.9
20260906222006 58 314 16.0 22.0 0.00 0.05 0.05 82 1000.9
20260906221506 58 346 13.0 23.0 0.00 0.05 0.05 82 1000.8
20260906221005 58 319 14.0 22.0 0.00 0.05 0.05 82 1000.8
20260906220506 58 306 18.0 28.0 0.00 0.05 0.05 81 1000.9
20260906220005 58 317 20.0 32.0 0.00 0.05 0.05 81 1000.7
20260906214506 58 322 21.0 33.0 0.00 0.05 0.05 82 1001.0
20260906213504 57 317 21.0 30.0 0.00 0.05 0.05 83 1001.1
20260906212007 57 318 21.0 30.0 0.00 0.05 0.05 84 1001.1
20260906211504 57 313 22.0 29.0 0.00 0.05 0.05 84 1001.1
20260906210005 57 312 17.0 23.0 0.00 0.05 0.05 87 1001.4
20260906205006 57 310 17.0 24.0 0.00 0.05 0.05 87 1001.3
20260906203007 57 313 22.0 32.0 0.00 0.05 0.05 89 1001.0
20260906202004 56 317 23.0 35.0 0.00 0.05 0.05 88 1001.3
20260906201005 56 307 16.0 23.0 0.00 0.05 0.05 87 1001.3
20260906200004 56 311 12.0 18.0 0.00 0.05 0.05 87 1001.2
20260906195505 56 320 10.0 14.0 0.00 0.05 0.05 87 1001.2
20260906194004 56 350 5.0 17.0 0.00 0.05 0.05 86 1000.9
20260906193005 56 354 9.0 14.0 0.00 0.05 0.05 86 1000.7
20260906192004 56 333 9.0 26.0 0.00 0.05 0.05 87 1001.0
20260906191504 57 325 20.0 26.0 0.00 0.05 0.05 87 1000.9
20260906191006 57 319 22.0 29.0 0.00 0.05 0.05 87 1001.1
20260906190005 57 323 18.0 28.0 0.00 0.05 0.05 87 1000.8
20260906185004 57 312 17.0 25.0 0.00 0.05 0.05 87 1001.1
20260906182506 57 320 17.0 23.0 0.00 0.05 0.05 89 1001.0
20260906174504 57 325 17.0 23.0 0.02 0.05 0.05 95 1001.4
20260906173504 58 323 17.0 26.0 0.02 0.05 0.05 96 1001.2
20260906172005 58 320 22.0 33.0 0.02 0.05 0.05 97 1001.3
20260906171004 58 319 18.0 26.0 0.02 0.04 0.04 97 1001.4
20260906165008 58 2 9.0 21.0 0.00 0.03 0.03 97 1001.2
20260906164507 58 356 12.0 18.0 0.01 0.03 0.03 96 1001.3
20260906162007 58 10 10.0 15.0 0.02 0.03 0.03 96 1001.7
20260906160506 58 1 11.0 22.0 0.02 0.03 0.03 96 1001.8
20260906155508 58 1 9.0 17.0 0.02 0.03 0.03 96 1001.9
20260906154506 58 1 12.0 16.0 0.02 0.02 0.02 95 1002.1
20260906154006 58 6 11.0 16.0 0.02 0.02 0.02 95 1002.2
20260906153506 58 7 11.0 18.0 0.02 0.02 0.02 95 1002.2
20260906152506 58 12 10.0 17.0 0.01 0.01 0.01 95 1002.2
20260906151006 58 28 7.0 13.0 0.00 0.01 0.01 94 1002.5
20260906150506 58 6 7.0 15.0 0.00 0.01 0.01 94 1002.6
20260906144506 58 16 7.0 14.0 0.00 0.00 0.00 93 1003.3
20260906144006 58 4 7.0 14.0 0.00 0.00 0.00 92 1003.3
20260906143506 58 25 9.0 17.0 0.00 0.00 0.00 92 1003.3
20260906143008 58 21 10.0 16.0 0.00 0.00 0.00 92 1003.5
20260906142506 58 12 9.0 16.0 0.00 0.00 0.00 91 1003.8
20260906141506 59 11 8.0 15.0 0.00 0.00 0.00 91 1004.1
20260906141006 59 7 9.0 13.0 0.00 0.00 0.00 90 1004.2
20260906135006 60 353 12.0 18.0 0.00 0.00 0.00 90 1004.6
20260906134507 60 356 12.0 20.0 0.00 0.00 0.00 90 1004.6
20260906133007 60 338 19.0 26.0 0.00 0.00 0.00 89 1005.0
20260906132508 60 341 8.0 21.0 0.00 0.00 0.00 88 1005.1
20260906130506 61 336 20.0 38.0 0.00 0.00 0.00 87 1005.3
20260906130008 61 317 15.0 21.0 0.00 0.00 0.00 86 1005.5
20260906125006 61 313 16.0 26.0 0.00 0.00 0.00 86 1005.6
20260906124005 61 322 18.0 29.0 0.00 0.00 0.00 86 1005.7
20260906122506 61 315 18.0 26.0 0.00 0.00 0.00 86 1005.8
20260906122007 61 332 20.0 30.0 0.00 0.00 0.00 86 1005.8
20260906121508 61 322 15.0 24.0 0.00 0.00 0.00 87 1006.0
20260906120007 61 313 17.0 24.0 0.00 0.00 0.00 87 1006.0
20260906114506 60 317 13.0 18.0 0.00 0.00 0.00 87 1006.2
20260906114008 60 332 13.0 17.0 0.00 0.00 0.00 87 1006.4
20260906113506 60 335 13.0 24.0 0.00 0.00 0.00 87 1006.5
20260906113006 60 322 12.0 23.0 0.00 0.00 0.00 87 1006.5
20260906112507 60 319 14.0 20.0 0.00 0.00 0.00 87 1006.7
20260906111506 60 319 13.0 20.0 0.00 0.00 0.00 87 1006.7
20260906111006 60 311 12.0 15.0 0.00 0.00 0.00 87 1006.9
20260906105007 61 341 12.0 16.0 0.00 0.00 0.00 87 1007.0
20260906101006 61 345 12.0 25.0 0.00 0.00 0.00 88 1007.5
20260906100005 61 320 14.0 23.0 0.00 0.00 0.00 88 1007.6
20260906095506 61 324 18.0 33.0 0.00 0.00 0.00 88 1007.6
20260906094507 61 320 17.0 30.0 0.00 0.00 0.00 88 1007.5
20260906092006 61 320 25.0 38.0 0.00 0.00 0.00 88 1007.8
20260906091507 61 314 26.0 36.0 0.00 0.00 0.00 88 1007.8
20260906091006 61 316 24.0 37.0 0.00 0.00 0.00 88 1008.1
20260906090007 61 313 30.0 41.0 0.00 0.00 0.00 88 1007.9
20260906085006 61 313 30.0 39.0 0.00 0.00 0.00 88 1008.0
20260906083508 61 320 26.0 38.0 0.00 0.00 0.00 88 1008.3
20260906081506 61 317 24.0 79.0 0.00 0.00 0.00 89 1008.4
20260906081008 61 314 21.0 33.0 0.00 0.00 0.00 90 1008.3
20260906075507 60 320 25.0 36.0 0.00 0.00 0.00 90 1008.5
20260906074006 60 317 24.0 31.0 0.00 0.00 0.00 92 1008.6
20260906073507 60 317 25.0 35.0 0.00 0.00 0.00 92 1008.9
20260906072006 60 320 25.0 38.0 0.00 0.00 0.00 93 1009.1
20260906071507 60 321 29.0 39.0 0.00 0.00 0.00 93 1009.0
20260906071006 59 316 30.0 39.0 0.00 0.00 0.00 93 1009.1
20260906070506 59 319 32.0 45.0 0.00 0.00 0.00 93 1009.1
20260906070007 59 318 33.0 43.0 0.00 0.00 0.00 92 1009.3
20260906065505 59 315 31.0 40.0 0.00 0.00 0.00 92 1009.1
20260906064006 60 323 32.0 41.0 0.00 0.00 0.00 89 1009.5
20260906063006 60 319 31.0 41.0 0.00 0.00 0.00 88 1009.4
20260906062006 60 312 31.0 40.0 0.00 0.00 0.00 87 1009.5
20260906061505 60 321 32.0 46.0 0.00 0.00 0.00 86 1009.6
20260906060505 60 317 34.0 45.0 0.00 0.00 0.00 86 1009.5
20260906054005 60 322 22.0 40.0 0.00 0.00 0.00 84 1010.0
20260906052006 60 324 22.0 31.0 0.00 0.00 0.00 83 1010.2
20260906051506 60 308 26.0 33.0 0.00 0.00 0.00 82 1010.2
20260906051007 60 315 19.0 33.0 0.00 0.00 0.00 81 1010.3
20260906050507 60 325 23.0 36.0 0.00 0.00 0.00 80 1010.2
20260906045507 60 325 18.0 26.0 0.00 0.00 0.00 79 1010.3
20260906045006 60 321 16.0 24.0 0.00 0.00 0.00 79 1010.3
20260906044505 60 321 17.0 26.0 0.00 0.00 0.00 78 1010.5
20260906044006 60 316 21.0 28.0 0.00 0.00 0.00 78 1010.4
20260906041006 60 321 23.0 32.0 0.00 0.00 0.00 76 1010.9
20260906040005 61 327 25.0 32.0 0.00 0.00 0.00 76 1011.0
20260906035505 61 310 24.0 31.0 0.00 0.00 0.00 75 1011.2
20260906034505 62 318 24.0 35.0 0.00 0.00 0.00 75 1011.2
20260906034006 62 320 18.0 29.0 0.00 0.00 0.00 77 1011.4
20260906032505 61 316 30.0 39.0 0.00 0.00 0.00 77 1011.3
20260906031006 60 325 29.0 41.0 0.00 0.00 0.00 81 1011.9
20260906030005 61 326 22.0 36.0 0.00 0.00 0.00 81 1012.3
20260906025507 61 323 24.0 38.0 0.00 0.00 0.00 82 1012.2
20260906024505 61 318 27.0 36.0 0.00 0.00 0.00 80 1012.4
20260906023005 62 319 25.0 35.0 0.00 0.00 0.00 79 1012.4
20260906022505 62 321 25.0 33.0 0.00 0.00 0.00 80 1012.3
20260906022007 62 327 21.0 36.0 0.00 0.00 0.00 79 1012.4
20260906021505 62 323 20.0 28.0 0.00 0.00 0.00 82 1012.5
20260906015505 61 318 27.0 36.0 0.00 0.00 0.00 78 1012.7
20260906015005 61 320 23.0 31.0 0.00 0.00 0.00 78 1012.8
20260906014007 61 319 26.0 35.0 0.00 0.00 0.00 76 1012.7
20260906012506 62 320 24.0 36.0 0.00 0.00 0.00 75 1013.0
20260906012005 62 322 22.0 30.0 0.00 0.00 0.00 75 1013.2
20260906011505 62 324 22.0 32.0 0.00 0.00 0.00 76 1013.2
20260906011005 62 310 20.0 31.0 0.00 0.00 0.00 75 1013.1
20260906010506 62 319 26.0 37.0 0.00 0.00 0.00 74 1013.4
20260906010005 62 317 24.0 33.0 0.00 0.00 0.00 74 1013.2
20260906005505 62 317 25.0 31.0 0.00 0.00 0.00 74 1013.4
20260906004507 62 320 25.0 33.0 0.00 0.00 0.00 77 1013.8
20260906004005 62 331 26.0 35.0 0.00 0.00 0.00 76 1013.9
20260906003006 62 316 28.0 37.0 0.00 0.00 0.00 75 1014.0
20260906001005 61 320 24.0 32.0 0.00 0.00 0.00 76 1014.4
20260906000006 61 315 24.0 35.0 0.00 0.00 0.00 76 1014.7
20260905235005 61 324 22.0 31.0 0.00 0.00 0.00 76 1014.8
20260905234504 61 322 15.0 24.0 0.00 0.00 0.00 77 1014.9
20260905233505 61 322 24.0 32.0 0.00 0.00 0.00 76 1015.0
20260905233007 61 321 21.0 31.0 0.00 0.00 0.00 75 1015.0